,,Stat5,,Stat1,,Stat2,,Stat3,,Stat4,,Wind1,,Wind1,
time,status,PA1M_AVG,status,PR1M_SUM,status,RH1M_AVG,status,SR1M_AVG,status,TA1M_AVG,status,W1dAve1m,status,W1sAve1m,
2000-06-03, 00:00:00,VALID,915.514,VALID,0,VALID,82.948,VALID,-0.0849042,VALID,19.2168,VALID,216,VALID,1.5514,
2000-06-03, 00:01:00,VALID,915.514,VALID,0,VALID,83.0968,VALID,-0.0679233,VALID,19.1905,VALID,216,VALID,1.59655,
2000-06-03, 00:02:00,VALID,915.496,VALID,0,VALID,83.1629,VALID,-0.0849042,VALID,19.1718,VALID,210,VALID,1.503,
2000-06-03, 00:03:00,VALID,915.474,VALID,0,VALID,83.0599,VALID,-0.101885,VALID,19.1453,VALID,208,VALID,1.50473,
2000-06-03, 00:04:00,VALID,915.46,VALID,0,VALID,82.9569,VALID,-0.101885,VALID,19.1751,VALID,209,VALID,1.23759,
2000-06-03, 00:05:00,VALID,915.447,VALID,0,VALID,82.8756,VALID,-0.0849042,VALID,19.1977,VALID,201,VALID,1.70765,
2000-06-03, 00:06:00,VALID,915.446,VALID,0,VALID,82.4534,VALID,-0.101885,VALID,19.2265,VALID,201,VALID,1.6856,
2000-06-03, 00:07:00,VALID,915.442,VALID,0,VALID,82.3593,VALID,-0.0849042,VALID,19.2717,VALID,194,VALID,1.64597,
2000-06-03, 00:08:00,VALID,915.439,VALID,0,VALID,82.4292,VALID,-0.0679233,VALID,19.2814,VALID,198,VALID,1.5293,
2000-06-03, 00:09:00,VALID,915.439,VALID,0,VALID,82.4915,VALID,0,VALID,19.2842,VALID,200,VALID,1.31826,
2000-06-03, 00:10:00,VALID,915.437,VALID,0,VALID,82.4941,VALID,0,VALID,19.2671,VALID,198,VALID,1.67167,
2000-06-03, 00:11:00,VALID,915.43,VALID,0,VALID,82.447,VALID,0.0509425,VALID,19.2604,VALID,198,VALID,1.68092,
2000-06-03, 00:12:00,VALID,915.424,VALID,0,VALID,82.5017,VALID,0.0339617,VALID,19.2604,VALID,200,VALID,1.56785,
2000-06-03, 00:13:00,VALID,915.425,VALID,0,VALID,82.4915,VALID,0.0509425,VALID,19.2671,VALID,192,VALID,1.80357,
2000-06-03, 00:14:00,VALID,915.425,VALID,0,VALID,82.536,VALID,0.0509425,VALID,19.2601,VALID,197,VALID,1.65502,
2000-06-03, 00:15:00,VALID,915.401,VALID,0,VALID,82.6136,VALID,0.0339617,VALID,19.2604,VALID,194,VALID,1.4394,
2000-06-03, 00:16:00,VALID,915.407,VALID,0,VALID,82.6899,VALID,0,VALID,19.2509,VALID,189,VALID,1.5222,
2000-06-03, 00:17:00,VALID,915.384,VALID,0,VALID,82.9315,VALID,0.0339617,VALID,19.2059,VALID,190,VALID,1.55789,
2000-06-03, 00:18:00,VALID,915.363,VALID,0,VALID,83.313,VALID,0.0169808,VALID,19.1572,VALID,191,VALID,1.4846,
2000-06-03, 00:19:00,VALID,915.342,VALID,0,VALID,83.491,VALID,0.0849042,VALID,19.0924,VALID,191,VALID,1.84336,
2000-06-03, 00:20:00,VALID,915.349,VALID,0,VALID,83.7606,VALID,0.0509425,VALID,19.0504,VALID,193,VALID,1.70083,
2000-06-03, 00:21:00,VALID,915.348,VALID,0,VALID,83.9526,VALID,0.0169808,VALID,19.0188,VALID,194,VALID,1.62247,
2000-06-03, 00:22:00,VALID,915.336,VALID,0,VALID,84.2947,VALID,0.0169808,VALID,18.9925,VALID,194,VALID,1.23139,
2000-06-03, 00:23:00,VALID,915.327,VALID,0,VALID,84.4752,VALID,0,VALID,18.9535,VALID,199,VALID,1.24177,
2000-06-03, 00:24:00,VALID,915.324,VALID,0,VALID,84.7257,VALID,0,VALID,18.9256,VALID,193,VALID,1.21924,
2000-06-03, 00:25:00,VALID,915.31,VALID,0,VALID,84.9063,VALID,-0.0849042,VALID,18.9035,VALID,195,VALID,1.29427,
2000-06-03, 00:26:00,VALID,915.33,VALID,0,VALID,85.2153,VALID,-0.0849042,VALID,18.8679,VALID,198,VALID,0.882366,
2000-06-03, 00:27:00,VALID,915.332,VALID,0,VALID,85.6159,VALID,-0.101885,VALID,18.8195,VALID,196,VALID,0.855363,
2000-06-03, 00:28:00,VALID,915.341,VALID,0,VALID,85.7418,VALID,-0.101885,VALID,18.7646,VALID,188,VALID,1.09812,
2000-06-03, 00:29:00,VALID,915.327,VALID,0,VALID,86.0749,VALID,-0.0679233,VALID,18.7161,VALID,191,VALID,0.941512,
2000-06-03, 00:30:00,VALID,915.303,VALID,0,VALID,86.3165,VALID,-0.101885,VALID,18.6515,VALID,194,VALID,1.01028,
2000-06-03, 00:31:00,VALID,915.28,VALID,0,VALID,86.4004,VALID,-0.0679233,VALID,18.5966,VALID,196,VALID,1.09868,
2000-06-03, 00:32:00,VALID,915.248,VALID,0,VALID,86.3343,VALID,-0.0849042,VALID,18.5936,VALID,192,VALID,1.26875,
2000-06-03, 00:33:00,VALID,915.231,VALID,0,VALID,86.211,VALID,-0.0849042,VALID,18.5961,VALID,202,VALID,1.03146,
2000-06-03, 00:34:00,VALID,915.219,VALID,0,VALID,86.1181,VALID,-0.0679233,VALID,18.6224,VALID,205,VALID,0.844669,
2000-06-03, 00:35:00,VALID,915.216,VALID,0,VALID,85.7863,VALID,-0.0509425,VALID,18.6485,VALID,203,VALID,1.04856,
2000-06-03, 00:36:00,VALID,915.204,VALID,0,VALID,85.0678,VALID,-0.0679233,VALID,18.697,VALID,197,VALID,1.37549,
2000-06-03, 00:37:00,VALID,915.179,VALID,0,VALID,84.2527,VALID,-0.0849042,VALID,18.8232,VALID,196,VALID,1.21975,
2000-06-03, 00:38:00,VALID,915.159,VALID,0,VALID,83.5762,VALID,-0.101885,VALID,18.9362,VALID,199,VALID,1.2471,
2000-06-03, 00:39:00,VALID,915.123,VALID,0,VALID,83.8038,VALID,-0.0169808,VALID,19.0223,VALID,203,VALID,1.03231,
2000-06-03, 00:40:00,VALID,915.089,VALID,0,VALID,83.6716,VALID,0,VALID,19.0218,VALID,202,VALID,0.977022,
2000-06-03, 00:41:00,VALID,915.068,VALID,0,VALID,83.9475,VALID,0,VALID,18.993,VALID,199,VALID,0.790752,
2000-06-03, 00:42:00,VALID,915.049,VALID,0,VALID,84.2374,VALID,0,VALID,18.9671,VALID,203,VALID,0.797081,
2000-06-03, 00:43:00,VALID,915.041,VALID,0,VALID,84.6049,VALID,0.0169808,VALID,18.8958,VALID,199,VALID,1.02097,
2000-06-03, 00:44:00,VALID,915.029,VALID,0,VALID,84.816,VALID,0,VALID,18.8314,VALID,197,VALID,1.13482,
2000-06-03, 00:45:00,VALID,915.036,VALID,0,VALID,84.9445,VALID,0.0169808,VALID,18.7959,VALID,191,VALID,1.34671,
2000-06-03, 00:46:00,VALID,915.026,VALID,0,VALID,84.7194,VALID,0,VALID,18.7765,VALID,185,VALID,1.47679,
2000-06-03, 00:47:00,VALID,915.012,VALID,0,VALID,84.6571,VALID,0,VALID,18.8347,VALID,188,VALID,1.52639,
2000-06-03, 00:48:00,VALID,915.005,VALID,0,VALID,84.6494,VALID,0.0339617,VALID,18.8568,VALID,186,VALID,1.32397,
2000-06-03, 00:49:00,VALID,914.991,VALID,0,VALID,84.7524,VALID,0,VALID,18.8575,VALID,191,VALID,1.44792,
2000-06-03, 00:50:00,VALID,914.978,VALID,0,VALID,84.975,VALID,0,VALID,18.8545,VALID,198,VALID,1.30022,
2000-06-03, 00:51:00,VALID,914.97,VALID,0,VALID,85.312,VALID,0,VALID,18.7954,VALID,208,VALID,0.975507,
2000-06-03, 00:52:00,VALID,914.949,VALID,0,VALID,85.2522,VALID,0,VALID,18.7733,VALID,197,VALID,1.43405,
2000-06-03, 00:53:00,VALID,914.935,VALID,0,VALID,85.1301,VALID,0,VALID,18.7825,VALID,195,VALID,1.44236,
2000-06-03, 00:54:00,VALID,914.917,VALID,0,VALID,85.0513,VALID,0.0339617,VALID,18.8148,VALID,195,VALID,1.29955,
2000-06-03, 00:55:00,VALID,914.9,VALID,0,VALID,84.9495,VALID,0.0169808,VALID,18.8342,VALID,204,VALID,1.42455,
2000-06-03, 00:56:00,VALID,914.872,VALID,0,VALID,85.0055,VALID,0.0169808,VALID,18.8511,VALID,202,VALID,1.32567,
2000-06-03, 00:57:00,VALID,914.854,VALID,0,VALID,84.8987,VALID,0,VALID,18.8637,VALID,197,VALID,1.60916,
2000-06-03, 00:58:00,VALID,914.823,VALID,0,VALID,84.9775,VALID,0,VALID,18.8739,VALID,197,VALID,1.22886,
2000-06-03, 00:59:00,VALID,914.804,VALID,0,VALID,85.0347,VALID,0,VALID,18.8675,VALID,197,VALID,1.4318,
2000-06-03, 01:00:00,VALID,914.785,VALID,0,VALID,85.0945,VALID,0.0169808,VALID,18.8541,VALID,199,VALID,1.36572,
2000-06-03, 01:01:00,VALID,914.763,VALID,0,VALID,84.8008,VALID,0.0169808,VALID,18.8637,VALID,207,VALID,1.45974,
2000-06-03, 01:02:00,VALID,914.741,VALID,0,VALID,84.8198,VALID,0.0169808,VALID,18.8831,VALID,199,VALID,1.23527,
2000-06-03, 01:03:00,VALID,914.729,VALID,0,VALID,84.6863,VALID,0.0169808,VALID,18.8963,VALID,195,VALID,1.53294,
2000-06-03, 01:04:00,VALID,914.732,VALID,0,VALID,84.3786,VALID,0,VALID,18.8928,VALID,191,VALID,1.65142,
2000-06-03, 01:05:00,VALID,914.721,VALID,0,VALID,84.1166,VALID,0.0169808,VALID,18.9286,VALID,186,VALID,1.74155,
2000-06-03, 01:06:00,VALID,914.722,VALID,0,VALID,84.0988,VALID,0.0169808,VALID,18.9741,VALID,189,VALID,1.70683,
2000-06-03, 01:07:00,VALID,914.695,VALID,0,VALID,84.1688,VALID,0,VALID,18.9641,VALID,188,VALID,1.74239,
2000-06-03, 01:08:00,VALID,914.702,VALID,0,VALID,84.1522,VALID,0,VALID,18.9676,VALID,190,VALID,1.65893,
2000-06-03, 01:09:00,VALID,914.692,VALID,0,VALID,84.1917,VALID,0,VALID,18.9574,VALID,192,VALID,1.48311,
2000-06-03, 01:10:00,VALID,914.689,VALID,0,VALID,84.3443,VALID,0,VALID,18.9572,VALID,190,VALID,1.429,
2000-06-03, 01:11:00,VALID,914.665,VALID,0,VALID,84.5528,VALID,0.0169808,VALID,18.9321,VALID,188,VALID,1.23416,
2000-06-03, 01:12:00,VALID,914.654,VALID,0,VALID,84.727,VALID,0,VALID,18.8797,VALID,182,VALID,1.2373,
2000-06-03, 01:13:00,VALID,914.644,VALID,0,VALID,84.9381,VALID,0,VALID,18.8317,VALID,183,VALID,1.49199,
2000-06-03, 01:14:00,VALID,914.649,VALID,0,VALID,84.9152,VALID,0,VALID,18.819,VALID,186,VALID,1.40871,
2000-06-03, 01:15:00,VALID,914.639,VALID,0,VALID,84.9495,VALID,0,VALID,18.8153,VALID,188,VALID,1.29983,
2000-06-03, 01:16:00,VALID,914.645,VALID,0,VALID,85.1085,VALID,0,VALID,18.7991,VALID,188,VALID,1.30951,
2000-06-03, 01:17:00,VALID,914.63,VALID,0,VALID,85.0525,VALID,0,VALID,18.7698,VALID,198,VALID,1.29338,
2000-06-03, 01:18:00,VALID,914.63,VALID,0,VALID,85.0004,VALID,0,VALID,18.783,VALID,195,VALID,1.43442,
2000-06-03, 01:19:00,VALID,914.621,VALID,0,VALID,84.9775,VALID,0,VALID,18.7966,VALID,195,VALID,1.45354,
2000-06-03, 01:20:00,VALID,914.612,VALID,0,VALID,85.1416,VALID,0.0169808,VALID,18.7825,VALID,198,VALID,1.33438,
2000-06-03, 01:21:00,VALID,914.598,VALID,0,VALID,84.9457,VALID,0,VALID,18.7897,VALID,193,VALID,1.64126,
2000-06-03, 01:22:00,VALID,914.589,VALID,0,VALID,84.7677,VALID,0.0169808,VALID,18.7957,VALID,190,VALID,1.59237,
2000-06-03, 01:23:00,VALID,914.561,VALID,0,VALID,84.7753,VALID,0,VALID,18.8285,VALID,194,VALID,1.31546,
2000-06-03, 01:24:00,VALID,914.56,VALID,0,VALID,84.6329,VALID,0,VALID,18.819,VALID,195,VALID,1.42407,
2000-06-03, 01:25:00,VALID,914.549,VALID,0,VALID,84.5833,VALID,0,VALID,18.8319,VALID,195,VALID,1.5609,
2000-06-03, 01:26:00,VALID,914.531,VALID,0,VALID,84.3557,VALID,0,VALID,18.861,VALID,201,VALID,1.43728,
2000-06-03, 01:27:00,VALID,914.524,VALID,0,VALID,84.4727,VALID,0.0169808,VALID,18.8801,VALID,198,VALID,1.17948,
2000-06-03, 01:28:00,VALID,914.512,VALID,0,VALID,84.6087,VALID,0,VALID,18.8764,VALID,214,VALID,0.974954,
2000-06-03, 01:29:00,VALID,914.508,VALID,0,VALID,84.3837,VALID,-0.0169808,VALID,18.8739,VALID,213,VALID,1.26837,
2000-06-03, 01:30:00,VALID,914.486,VALID,0,VALID,84.3519,VALID,0.0169808,VALID,18.8963,VALID,191,VALID,1.1139,
2000-06-03, 01:31:00,VALID,914.473,VALID,0,VALID,84.3379,VALID,0.0339617,VALID,18.9025,VALID,211,VALID,0.731497,
2000-06-03, 01:32:00,VALID,914.471,VALID,0,VALID,84.1789,VALID,0,VALID,18.909,VALID,196,VALID,1.12366,
2000-06-03, 01:33:00,VALID,914.482,VALID,0,VALID,84.0264,VALID,0.0169808,VALID,18.9182,VALID,196,VALID,1.41575,
2000-06-03, 01:34:00,VALID,914.486,VALID,0,VALID,83.9119,VALID,0.0509425,VALID,18.9505,VALID,194,VALID,1.22541,
2000-06-03, 01:35:00,VALID,914.49,VALID,0,VALID,83.9234,VALID,0.0169808,VALID,18.977,VALID,194,VALID,1.10051,
2000-06-03, 01:36:00,VALID,914.485,VALID,0,VALID,83.8916,VALID,0.0339617,VALID,18.9733,VALID,189,VALID,1.22046,
2000-06-03, 01:37:00,VALID,914.484,VALID,0,VALID,84.151,VALID,0,VALID,18.9706,VALID,191,VALID,1.04407,
2000-06-03, 01:38:00,VALID,914.458,VALID,0,VALID,84.8872,VALID,0,VALID,18.9256,VALID,202,VALID,0.916964,
2000-06-03, 01:39:00,VALID,914.443,VALID,0,VALID,85.5294,VALID,0,VALID,18.8255,VALID,204,VALID,1.17546,
2000-06-03, 01:40:00,VALID,914.412,VALID,0,VALID,85.8765,VALID,0,VALID,18.7149,VALID,202,VALID,1.10662,
2000-06-03, 01:41:00,VALID,914.385,VALID,0,VALID,86.1067,VALID,0,VALID,18.6508,VALID,199,VALID,1.22973,
2000-06-03, 01:42:00,VALID,914.373,VALID,0,VALID,86.1639,VALID,0.0339617,VALID,18.615,VALID,228,VALID,0.573191,
2000-06-03, 01:43:00,VALID,914.37,VALID,0,VALID,85.9656,VALID,0.0169808,VALID,18.5954,VALID,273,VALID,0.679071,
2000-06-03, 01:44:00,VALID,914.366,VALID,0,VALID,86.1728,VALID,0.0169808,VALID,18.6282,VALID,354,VALID,1.25625,
2000-06-03, 01:45:00,VALID,914.362,VALID,0,VALID,86.9778,VALID,0,VALID,18.5504,VALID,21,VALID,2.04497,
2000-06-03, 01:46:00,VALID,914.37,VALID,0,VALID,87.803,VALID,0,VALID,18.4372,VALID,75,VALID,1.08203,
2000-06-03, 01:47:00,VALID,914.348,VALID,0,VALID,88.4554,VALID,0,VALID,18.3989,VALID,179,VALID,0.607897,
2000-06-03, 01:48:00,VALID,914.347,VALID,0,VALID,88.7504,VALID,0,VALID,18.3315,VALID,157,VALID,1.09204,
2000-06-03, 01:49:00,VALID,914.321,VALID,0,VALID,88.7402,VALID,0,VALID,18.2339,VALID,173,VALID,1.35457,
2000-06-03, 01:50:00,VALID,914.303,VALID,0,VALID,88.271,VALID,0,VALID,18.2312,VALID,172,VALID,1.62701,
2000-06-03, 01:51:00,VALID,914.287,VALID,0,VALID,88.3231,VALID,0.0509425,VALID,18.2535,VALID,170,VALID,1.38746,
2000-06-03, 01:52:00,VALID,914.281,VALID,0,VALID,88.2761,VALID,0.0169808,VALID,18.2369,VALID,165,VALID,1.58663,
2000-06-03, 01:53:00,VALID,914.267,VALID,0,VALID,87.8666,VALID,0,VALID,18.2628,VALID,177,VALID,1.47318,
2000-06-03, 01:54:00,VALID,914.267,VALID,0,VALID,88.0027,VALID,-0.0679233,VALID,18.3354,VALID,198,VALID,0.920641,
2000-06-03, 01:55:00,VALID,914.249,VALID,0,VALID,88.1998,VALID,-0.0849042,VALID,18.316,VALID,222,VALID,1.11205,
2000-06-03, 01:56:00,VALID,914.25,VALID,0,VALID,87.8755,VALID,-0.101885,VALID,18.307,VALID,237,VALID,1.23103,
2000-06-03, 01:57:00,VALID,914.253,VALID,0,VALID,87.433,VALID,-0.101885,VALID,18.3331,VALID,226,VALID,1.33636,
2000-06-03, 01:58:00,VALID,914.249,VALID,0,VALID,86.9625,VALID,-0.101885,VALID,18.3843,VALID,223,VALID,1.19922,
2000-06-03, 01:59:00,VALID,914.256,VALID,0,VALID,86.548,VALID,-0.135847,VALID,18.4688,VALID,219,VALID,1.05384,
2000-06-03, 02:00:00,VALID,914.256,VALID,0,VALID,86.3915,VALID,-0.101885,VALID,18.5396,VALID,191,VALID,0.985352,
2000-06-03, 02:01:00,VALID,914.265,VALID,0,VALID,86.5607,VALID,-0.0849042,VALID,18.5689,VALID,181,VALID,0.591947,
2000-06-03, 02:02:00,VALID,914.277,VALID,0,VALID,86.4271,VALID,-0.135847,VALID,18.5655,VALID,187,VALID,1.11853,
2000-06-03, 02:03:00,VALID,914.25,VALID,0,VALID,86.4742,VALID,-0.135847,VALID,18.5655,VALID,181,VALID,1.23374,
2000-06-03, 02:04:00,VALID,914.23,VALID,0,VALID,86.5111,VALID,-0.101885,VALID,18.5754,VALID,172,VALID,1.46278,
2000-06-03, 02:05:00,VALID,914.216,VALID,0,VALID,86.6522,VALID,-0.101885,VALID,18.5622,VALID,170,VALID,1.27851,
2000-06-03, 02:06:00,VALID,914.197,VALID,0,VALID,86.4717,VALID,-0.118866,VALID,18.5528,VALID,184,VALID,1.42948,
2000-06-03, 02:07:00,VALID,914.174,VALID,0,VALID,86.4666,VALID,-0.101885,VALID,18.5687,VALID,185,VALID,1.65049,
2000-06-03, 02:08:00,VALID,914.16,VALID,0,VALID,86.1563,VALID,-0.152827,VALID,18.5908,VALID,191,VALID,1.84531,
2000-06-03, 02:09:00,VALID,914.136,VALID,0,VALID,85.8219,VALID,-0.0509425,VALID,18.6552,VALID,193,VALID,1.65815,
2000-06-03, 02:10:00,VALID,914.124,VALID,0,VALID,85.1861,VALID,0,VALID,18.7258,VALID,199,VALID,1.57215,
2000-06-03, 02:11:00,VALID,914.103,VALID,0,VALID,84.8059,VALID,-0.0169808,VALID,18.8031,VALID,205,VALID,1.01372,
2000-06-03, 02:12:00,VALID,914.093,VALID,0,VALID,84.6952,VALID,-0.0169808,VALID,18.8637,VALID,210,VALID,0.515381,
2000-06-03, 02:13:00,VALID,914.084,VALID,0,VALID,84.596,VALID,0.0169808,VALID,18.9,VALID,201,VALID,1.0653,
2000-06-03, 02:14:00,VALID,914.078,VALID,0,VALID,85.3946,VALID,0,VALID,18.8898,VALID,169,VALID,0.339732,
2000-06-03, 02:15:00,VALID,914.079,VALID,0,VALID,85.3565,VALID,0,VALID,18.819,VALID,197,VALID,0.516047,
2000-06-03, 02:16:00,VALID,914.078,VALID,0,VALID,85.7176,VALID,0,VALID,18.7643,VALID,178,VALID,0.750919,
2000-06-03, 02:17:00,VALID,914.062,VALID,0,VALID,85.7316,VALID,0,VALID,18.7027,VALID,173,VALID,1.11867,
2000-06-03, 02:18:00,VALID,914.052,VALID,0,VALID,85.7494,VALID,0,VALID,18.6903,VALID,180,VALID,1.3016,
2000-06-03, 02:19:00,VALID,914.047,VALID,0,VALID,85.9757,VALID,-0.0169808,VALID,18.687,VALID,186,VALID,1.18976,
2000-06-03, 02:20:00,VALID,914.017,VALID,0,VALID,86.0279,VALID,-0.0169808,VALID,18.6806,VALID,192,VALID,1.58192,
2000-06-03, 02:21:00,VALID,913.986,VALID,0,VALID,85.916,VALID,0,VALID,18.6734,VALID,190,VALID,1.58805,
2000-06-03, 02:22:00,VALID,913.973,VALID,0,VALID,86.0597,VALID,0,VALID,18.6803,VALID,185,VALID,1.34214,
2000-06-03, 02:23:00,VALID,913.965,VALID,0,VALID,85.9071,VALID,0,VALID,18.6702,VALID,183,VALID,1.26626,
2000-06-03, 02:24:00,VALID,913.959,VALID,0,VALID,86.4691,VALID,0.0679233,VALID,18.6764,VALID,154,VALID,0.915527,
2000-06-03, 02:25:00,VALID,913.951,VALID,0,VALID,86.9676,VALID,0.0679233,VALID,18.5689,VALID,156,VALID,0.735978,
2000-06-03, 02:26:00,VALID,913.928,VALID,0,VALID,87.1901,VALID,0.0849042,VALID,18.4791,VALID,169,VALID,0.691964,
2000-06-03, 02:27:00,VALID,913.9,VALID,0,VALID,87.2613,VALID,0.101885,VALID,18.4337,VALID,162,VALID,0.679688,
2000-06-03, 02:28:00,VALID,913.883,VALID,0,VALID,87.3987,VALID,0.0849042,VALID,18.4173,VALID,166,VALID,0.730469,
2000-06-03, 02:29:00,VALID,913.857,VALID,0,VALID,87.1939,VALID,0.0849042,VALID,18.424,VALID,165,VALID,1.03991,
2000-06-03, 02:30:00,VALID,913.829,VALID,0,VALID,87.0515,VALID,0.101885,VALID,18.4496,VALID,175,VALID,0.991365,
2000-06-03, 02:31:00,VALID,913.822,VALID,0,VALID,86.74,VALID,0.101885,VALID,18.4948,VALID,170,VALID,1.0847,
2000-06-03, 02:32:00,VALID,913.801,VALID,0,VALID,86.431,VALID,0.0169808,VALID,18.5433,VALID,186,VALID,1.32723,
2000-06-03, 02:33:00,VALID,913.807,VALID,0,VALID,85.9185,VALID,0.0509425,VALID,18.6143,VALID,184,VALID,1.48986,
2000-06-03, 02:34:00,VALID,913.802,VALID,0,VALID,85.579,VALID,0.0679233,VALID,18.6988,VALID,180,VALID,0.997243,
2000-06-03, 02:35:00,VALID,913.79,VALID,0,VALID,85.4633,VALID,0.101885,VALID,18.7539,VALID,171,VALID,0.854096,
2000-06-03, 02:36:00,VALID,913.793,VALID,0,VALID,85.2852,VALID,0.0509425,VALID,18.7765,VALID,185,VALID,0.88208,
2000-06-03, 02:37:00,VALID,913.784,VALID,0,VALID,85.2547,VALID,0.0509425,VALID,18.7924,VALID,199,VALID,0.884215,
2000-06-03, 02:38:00,VALID,913.771,VALID,0,VALID,85.1212,VALID,0.0849042,VALID,18.8118,VALID,212,VALID,1.13906,
2000-06-03, 02:39:00,VALID,913.758,VALID,0,VALID,85.003,VALID,0,VALID,18.8386,VALID,209,VALID,1.23416,
2000-06-03, 02:40:00,VALID,913.744,VALID,0,VALID,85.0525,VALID,-0.0339617,VALID,18.855,VALID,208,VALID,0.861673,
2000-06-03, 02:41:00,VALID,913.739,VALID,0,VALID,85.1212,VALID,-0.0169808,VALID,18.8518,VALID,199,VALID,1.06081,
2000-06-03, 02:42:00,VALID,913.735,VALID,0,VALID,85.3921,VALID,-0.0679233,VALID,18.8423,VALID,199,VALID,0.742599,
2000-06-03, 02:43:00,VALID,913.716,VALID,0,VALID,85.6095,VALID,-0.0509425,VALID,18.7999,VALID,192,VALID,0.969367,
2000-06-03, 02:44:00,VALID,913.725,VALID,0,VALID,85.8346,VALID,-0.0169808,VALID,18.7611,VALID,192,VALID,0.828795,
2000-06-03, 02:45:00,VALID,913.72,VALID,0,VALID,86.2491,VALID,-0.0509425,VALID,18.7129,VALID,176,VALID,0.774282,
2000-06-03, 02:46:00,VALID,913.719,VALID,0,VALID,86.6916,VALID,-0.0339617,VALID,18.6552,VALID,175,VALID,0.599035,
2000-06-03, 02:47:00,VALID,913.703,VALID,0,VALID,86.7959,VALID,-0.0679233,VALID,18.5839,VALID,179,VALID,0.628801,
2000-06-03, 02:48:00,VALID,913.689,VALID,0,VALID,87.1456,VALID,-0.0169808,VALID,18.5352,VALID,176,VALID,0.571533,
2000-06-03, 02:49:00,VALID,913.679,VALID,0,VALID,87.2028,VALID,-0.0169808,VALID,18.4932,VALID,175,VALID,0.742788,
2000-06-03, 02:50:00,VALID,913.659,VALID,0,VALID,86.8226,VALID,0,VALID,18.4803,VALID,192,VALID,1.06763,
2000-06-03, 02:51:00,VALID,913.649,VALID,0,VALID,86.6052,VALID,-0.0169808,VALID,18.5315,VALID,202,VALID,1.13767,
2000-06-03, 02:52:00,VALID,913.627,VALID,0,VALID,86.6433,VALID,-0.0169808,VALID,18.58,VALID,196,VALID,1.03332,
2000-06-03, 02:53:00,VALID,913.63,VALID,0,VALID,86.6586,VALID,-0.0509425,VALID,18.6026,VALID,195,VALID,1.00887,
2000-06-03, 02:54:00,VALID,913.62,VALID,0,VALID,86.7819,VALID,0.0509425,VALID,18.5994,VALID,157,VALID,0.856908,
2000-06-03, 02:55:00,VALID,913.628,VALID,0,VALID,87.4152,VALID,0.0679233,VALID,18.5467,VALID,107,VALID,0.147821,
2000-06-03, 02:56:00,VALID,913.628,VALID,0,VALID,87.7318,VALID,0.0509425,VALID,18.4757,VALID,137,VALID,0.0919643,
2000-06-03, 02:57:00,VALID,913.63,VALID,0,VALID,88.2227,VALID,0.0509425,VALID,18.4113,VALID,138,VALID,0.199747,
2000-06-03, 02:58:00,VALID,913.63,VALID,0,VALID,88.4299,VALID,0.0339617,VALID,18.34,VALID,145,VALID,0.345588,
2000-06-03, 02:59:00,VALID,913.632,VALID,0,VALID,89.0467,VALID,0.0509425,VALID,18.263,VALID,145,VALID,0.600507,
2000-06-03, 03:00:00,VALID,913.62,VALID,0,VALID,89.1319,VALID,0.0679233,VALID,18.182,VALID,154,VALID,0.641113,
2000-06-03, 03:01:00,VALID,913.623,VALID,0,VALID,88.8826,VALID,0.0679233,VALID,18.1659,VALID,158,VALID,0.795272,
2000-06-03, 03:02:00,VALID,913.626,VALID,0,VALID,88.4617,VALID,0.0679233,VALID,18.2141,VALID,167,VALID,0.838393,
2000-06-03, 03:03:00,VALID,913.622,VALID,0,VALID,88.0014,VALID,0.0339617,VALID,18.2916,VALID,177,VALID,1.00084,
2000-06-03, 03:04:00,VALID,913.617,VALID,0,VALID,87.784,VALID,0.0509425,VALID,18.3726,VALID,179,VALID,1.02321,
2000-06-03, 03:05:00,VALID,913.626,VALID,0,VALID,87.5983,VALID,0.0849042,VALID,18.424,VALID,188,VALID,1.053,
2000-06-03, 03:06:00,VALID,913.609,VALID,0,VALID,87.5322,VALID,0.0509425,VALID,18.4434,VALID,191,VALID,1.08183,
2000-06-03, 03:07:00,VALID,913.613,VALID,0,VALID,87.6263,VALID,0.0849042,VALID,18.4561,VALID,196,VALID,0.717722,
2000-06-03, 03:08:00,VALID,913.612,VALID,0,VALID,88.243,VALID,0.0849042,VALID,18.4434,VALID,179,VALID,0.548214,
2000-06-03, 03:09:00,VALID,913.613,VALID,0,VALID,88.4337,VALID,0.0509425,VALID,18.3691,VALID,182,VALID,0.803843,
2000-06-03, 03:10:00,VALID,913.605,VALID,0,VALID,88.5113,VALID,0.0679233,VALID,18.308,VALID,182,VALID,0.9375,
2000-06-03, 03:11:00,VALID,913.606,VALID,0,VALID,88.3206,VALID,0.0509425,VALID,18.2854,VALID,189,VALID,0.903716,
2000-06-03, 03:12:00,VALID,913.591,VALID,0,VALID,87.9925,VALID,0.0339617,VALID,18.308,VALID,198,VALID,0.974854,
2000-06-03, 03:13:00,VALID,913.579,VALID,0,VALID,87.7865,VALID,0.0509425,VALID,18.3663,VALID,204,VALID,0.835136,
2000-06-03, 03:14:00,VALID,913.564,VALID,0,VALID,87.7636,VALID,0.0849042,VALID,18.4049,VALID,199,VALID,0.733705,
2000-06-03, 03:15:00,VALID,913.571,VALID,0,VALID,88.0421,VALID,0.0849042,VALID,18.4247,VALID,181,VALID,0.613176,
2000-06-03, 03:16:00,VALID,913.548,VALID,0,VALID,88.4935,VALID,0.0339617,VALID,18.3564,VALID,180,VALID,0.619485,
2000-06-03, 03:17:00,VALID,913.545,VALID,0,VALID,88.8076,VALID,0.0339617,VALID,18.269,VALID,184,VALID,0.827069,
2000-06-03, 03:18:00,VALID,913.533,VALID,0,VALID,89.0403,VALID,0.0509425,VALID,18.2173,VALID,180,VALID,0.64926,
2000-06-03, 03:19:00,VALID,913.512,VALID,0,VALID,89.2883,VALID,0.0509425,VALID,18.1922,VALID,181,VALID,0.676398,
2000-06-03, 03:20:00,VALID,913.505,VALID,0,VALID,89.9152,VALID,0.101885,VALID,18.1237,VALID,163,VALID,0.629687,
2000-06-03, 03:21:00,VALID,913.486,VALID,0,VALID,90.8422,VALID,0.0849042,VALID,18.0042,VALID,158,VALID,0.620144,
2000-06-03, 03:22:00,VALID,913.465,VALID,0,VALID,91.4131,VALID,0.0169808,VALID,17.8653,VALID,170,VALID,0.86489,
2000-06-03, 03:23:00,VALID,913.446,VALID,0,VALID,91.6102,VALID,0.0849042,VALID,17.7977,VALID,179,VALID,0.866554,
2000-06-03, 03:24:00,VALID,913.433,VALID,0,VALID,91.5047,VALID,0.101885,VALID,17.8012,VALID,185,VALID,0.973877,
2000-06-03, 03:25:00,VALID,913.423,VALID,0,VALID,91.0202,VALID,0.0169808,VALID,17.8074,VALID,187,VALID,1.0613,
2000-06-03, 03:26:00,VALID,913.436,VALID,0,VALID,90.8333,VALID,0.0679233,VALID,17.8856,VALID,177,VALID,1.00647,
2000-06-03, 03:27:00,VALID,913.438,VALID,0,VALID,90.4365,VALID,0.0509425,VALID,17.9138,VALID,179,VALID,1.22846,
2000-06-03, 03:28:00,VALID,913.431,VALID,0,VALID,89.8986,VALID,0.0849042,VALID,17.9853,VALID,178,VALID,1.19968,
2000-06-03, 03:29:00,VALID,913.431,VALID,0,VALID,89.3175,VALID,0.0679233,VALID,18.069,VALID,180,VALID,1.24409,
2000-06-03, 03:30:00,VALID,913.44,VALID,0,VALID,88.7478,VALID,0.0509425,VALID,18.1827,VALID,179,VALID,0.96176,
2000-06-03, 03:31:00,VALID,913.43,VALID,0,VALID,88.3002,VALID,0.0509425,VALID,18.2628,VALID,170,VALID,0.909951,
2000-06-03, 03:32:00,VALID,913.425,VALID,0,VALID,88.2443,VALID,0.0509425,VALID,18.3343,VALID,171,VALID,0.889732,
2000-06-03, 03:33:00,VALID,913.418,VALID,0,VALID,89.2285,VALID,0.0169808,VALID,18.2888,VALID,134,VALID,0.868454,
2000-06-03, 03:34:00,VALID,913.392,VALID,0,VALID,90.0283,VALID,0.0509425,VALID,18.0528,VALID,113,VALID,1.1096,